Weather in Staroe Mart'yanovo

Russia / Udmurt Republic     56°49′40″N   53°25′06″E
temp.,
°C
wind,
m/s
gust,
m/s
humid.,
%
clouds,
%
prec.,
mm/h
press.,
hPa
HPBL,
m
15 april, thu
thu1501:00+10s33857 0.0 102537
04:00+8ssw338568 0.0 102427
07:00+7ssw379439 0.0 1023119
10:00+14ssw47715 0.0 1022382
13:00+17sw57570 0.0 1021929
16:00+18sw575098 0.0 10201522
19:00+15wsw22645 0.0 101917
22:00+11nw34775 0.0 102043
16 april, fri
fri1601:00+7ne7118795 0.0 1022484
04:00+5ne7138547 0.0 1024500
07:00+5ne7127399 0.0 1026596
10:00+7ne795360 0.0 1027680
13:00+10ne77406 0.0 10271010
16:00+11ne66400 0.0 10261143
19:00+8nne59490 0.0 1027297
22:00+4ne511600 0.0 1028258
17 april, sat
sat1701:00+2ne49660 0.0 1028199
04:00+1nne38695 0.0 1029142
07:00+2ne49645 0.0 1029263
10:00+7ne46455 0.0 1029775
13:00+10nne45394 0.0 10281289
16:00+10nne44405 0.0 10271566
19:00+8n22545 0.0 102635
22:00+5nnw22615 0.0 102520
18 april, sun
sun1801:00+3nnw22715 0.0 102525
04:00+2nw33765 0.0 102429
07:00+3nw38740 0.0 1024256
10:00+7nne676019 0.0 10241057
13:00+4ne7965100 0.0 1026836
16:00+7ne89365 0.0 10261730
19:00+4ne610420 0.0 1028708
22:00+1ne512500 0.0 1031449
19 april, mon
mon1901:00−1ene511645 0.0 1032361
04:00−1ene410630 0.0 1034390
07:00−1e59550 0.0 1036614
10:00+3e67310 0.0 10351454
13:00+5e56270 0.0 10351661
16:00+6ene55280 0.0 10341692
19:00+3ene35420 0.0 1034110
22:000e22500 0.0 103527